Time,TemperatureF,DewpointF,PressureIn,WindDirection,WindDirectionDegrees,WindSpeedMPH,WindSpeedGustMPH,Humidity,HourlyPrecipIn,Conditions,Clouds,dailyrainin,SoftwareType,DateUTC
2013-01-27 07:54:00,7.8,5.0,30.48,NW,324,0.0,-999.0,88,-99.99,,,0.00,weatherlink.com 1.10,2013-01-27 12:54:00,
2013-01-27 08:08:00,8.1,6.0,30.48,NW,324,0.0,-999.0,89,-99.99,,,0.00,weatherlink.com 1.10,2013-01-27 13:08:00,
2013-01-27 08:23:00,9.1,7.0,30.49,NW,324,0.0,-999.0,89,-99.99,,,0.00,weatherlink.com 1.10,2013-01-27 13:23:00,
2013-01-27 08:38:00,10.3,8.0,30.50,NW,324,0.0,-999.0,90,-99.99,,,0.00,weatherlink.com 1.10,2013-01-27 13:38:00,
2013-01-27 08:53:00,12.5,10.0,30.50,NW,324,0.0,-999.0,89,-99.99,,,0.00,weatherlink.com 1.10,2013-01-27 13:53:00,
2013-01-27 09:08:00,14.6,11.0,30.50,NW,324,0.0,-999.0,87,-99.99,,,0.00,weatherlink.com 1.10,2013-01-27 14:08:00,
2013-01-27 09:24:00,16.4,12.0,30.50,NW,324,0.0,-999.0,83,-99.99,,,0.00,weatherlink.com 1.10,2013-01-27 14:24:00,
2013-01-27 09:39:00,18.0,13.0,30.51,NW,324,0.0,-999.0,81,-99.99,,,0.00,weatherlink.com 1.10,2013-01-27 14:39:00,
2013-01-27 09:54:00,19.4,14.0,30.52,NW,324,0.0,-999.0,79,-99.99,,,0.00,weatherlink.com 1.10,2013-01-27 14:54:00,
2013-01-27 10:09:00,20.6,14.0,30.52,WNW,301,0.0,-999.0,74,-99.99,,,0.00,weatherlink.com 1.10,2013-01-27 15:09:00,
2013-01-27 10:24:00,22.0,13.0,30.52,West,274,2.0,-999.0,69,-99.99,,,0.00,weatherlink.com 1.10,2013-01-27 15:24:00,
2013-01-27 10:39:00,23.3,13.0,30.53,North,349,4.0,-999.0,64,-99.99,,,0.00,weatherlink.com 1.10,2013-01-27 15:39:00,
2013-01-27 10:54:00,24.3,12.0,30.53,NNW,329,5.0,-999.0,61,-99.99,,,0.00,weatherlink.com 1.10,2013-01-27 15:54:00,
2013-01-27 11:09:00,25.2,11.0,30.53,NNE,15,4.0,-999.0,55,-99.99,,,0.00,weatherlink.com 1.10,2013-01-27 16:09:00,
2013-01-27 11:24:00,25.8,10.0,30.53,North,5,4.0,-999.0,51,-99.99,,,0.00,weatherlink.com 1.10,2013-01-27 16:24:00,
2013-01-27 11:39:00,26.5,10.0,30.52,NW,305,5.0,-999.0,50,-99.99,,,0.00,weatherlink.com 1.10,2013-01-27 16:39:00,
2013-01-27 11:55:00,27.2,9.0,30.51,NNW,334,4.0,-999.0,47,-99.99,,,0.00,weatherlink.com 1.10,2013-01-27 16:55:00,
2013-01-27 12:10:00,27.8,9.0,30.50,North,351,7.0,-999.0,46,-99.99,,,0.00,weatherlink.com 1.10,2013-01-27 17:10:00,
2013-01-27 12:25:00,28.2,9.0,30.50,North,351,5.0,-999.0,44,-99.99,,,0.00,weatherlink.com 1.10,2013-01-27 17:25:00,
2013-01-27 12:40:00,28.5,8.0,30.48,NNE,31,4.0,-999.0,43,-99.99,,,0.00,weatherlink.com 1.10,2013-01-27 17:40:00,
2013-01-27 12:55:00,28.7,10.0,30.48,North,360,4.0,-999.0,45,-99.99,,,0.00,weatherlink.com 1.10,2013-01-27 17:55:00,
2013-01-27 13:10:00,29.2,9.0,30.48,NW,304,6.0,-999.0,42,-99.99,,,0.00,weatherlink.com 1.10,2013-01-27 18:10:00,
2013-01-27 13:25:00,29.8,9.0,30.48,North,360,4.0,-999.0,41,-99.99,,,0.00,weatherlink.com 1.10,2013-01-27 18:25:00,
2013-01-27 13:40:00,30.2,8.0,30.47,North,355,4.0,-999.0,39,-99.99,,,0.00,weatherlink.com 1.10,2013-01-27 18:40:00,
2013-01-27 13:55:00,30.8,8.0,30.47,NW,315,5.0,-999.0,39,-99.99,,,0.00,weatherlink.com 1.10,2013-01-27 18:55:00,
2013-01-27 14:10:00,31.4,10.0,30.48,NNW,327,6.0,-999.0,40,-99.99,,,0.00,weatherlink.com 1.10,2013-01-27 19:10:00,
2013-01-27 14:26:00,31.7,9.0,30.47,West,273,4.0,-999.0,39,-99.99,,,0.00,weatherlink.com 1.10,2013-01-27 19:26:00,
2013-01-27 14:41:00,32.0,9.0,30.47,NNW,327,4.0,-999.0,38,-99.99,,,0.00,weatherlink.com 1.10,2013-01-27 19:41:00,
2013-01-27 14:56:00,32.0,8.0,30.47,NNW,347,4.0,-999.0,36,-99.99,,,0.00,weatherlink.com 1.10,2013-01-27 19:56:00,
2013-01-27 15:11:00,32.1,8.0,30.47,NW,317,1.0,-999.0,37,-99.99,,,0.00,weatherlink.com 1.10,2013-01-27 20:11:00,
2013-01-27 15:26:00,32.1,8.0,30.47,North,351,2.0,-999.0,36,-99.99,,,0.00,weatherlink.com 1.10,2013-01-27 20:26:00,
2013-01-27 15:41:00,32.2,7.0,30.47,NNW,329,0.0,-999.0,35,-99.99,,,0.00,weatherlink.com 1.10,2013-01-27 20:41:00,
2013-01-27 15:56:00,32.2,7.0,30.47,NW,315,1.0,-999.0,35,-99.99,,,0.00,weatherlink.com 1.10,2013-01-27 20:56:00,
2013-01-27 16:11:00,32.2,7.0,30.47,NW,326,0.0,-999.0,35,-99.99,,,0.00,weatherlink.com 1.10,2013-01-27 21:11:00,
2013-01-27 16:26:00,32.1,7.0,30.48,NW,321,0.0,-999.0,35,-99.99,,,0.00,weatherlink.com 1.10,2013-01-27 21:26:00,
2013-01-27 16:41:00,32.0,7.0,30.49,NNW,328,0.0,-999.0,35,-99.99,,,0.00,weatherlink.com 1.10,2013-01-27 21:41:00,
2013-01-27 16:56:00,31.6,8.0,30.50,NW,308,0.0,-999.0,37,-99.99,,,0.00,weatherlink.com 1.10,2013-01-27 21:56:00,
2013-01-27 17:11:00,31.2,8.0,30.50,NW,309,0.0,-999.0,37,-99.99,,,0.00,weatherlink.com 1.10,2013-01-27 22:11:00,
2013-01-27 17:27:00,30.8,7.0,30.50,NW,309,0.0,-999.0,37,-99.99,,,0.00,weatherlink.com 1.10,2013-01-27 22:27:00,
2013-01-27 17:42:00,30.5,7.0,30.50,NW,309,0.0,-999.0,37,-99.99,,,0.00,weatherlink.com 1.10,2013-01-27 22:42:00,
2013-01-27 17:57:00,30.1,7.0,30.50,NW,309,0.0,-999.0,37,-99.99,,,0.00,weatherlink.com 1.10,2013-01-27 22:57:00,
2013-01-27 18:12:00,29.3,9.0,30.51,WSW,242,0.0,-999.0,42,-99.99,,,0.00,weatherlink.com 1.10,2013-01-27 23:12:00,
2013-01-27 18:27:00,28.4,9.0,30.50,WSW,242,0.0,-999.0,45,-99.99,,,0.00,weatherlink.com 1.10,2013-01-27 23:27:00,
2013-01-27 18:42:00,28.5,8.0,30.50,WSW,242,0.0,-999.0,42,-99.99,,,0.00,weatherlink.com 1.10,2013-01-27 23:42:00,
2013-01-27 18:57:00,28.6,9.0,30.50,WSW,242,0.0,-999.0,44,-99.99,,,0.00,weatherlink.com 1.10,2013-01-27 23:57:00,
2013-01-27 19:12:00,27.6,11.0,30.52,WSW,242,0.0,-999.0,50,-99.99,,,0.00,weatherlink.com 1.10,2013-01-28 00:12:00,
2013-01-27 19:27:00,26.8,10.0,30.51,South,184,0.0,-999.0,49,-99.99,,,0.00,weatherlink.com 1.10,2013-01-28 00:27:00,
2013-01-27 19:42:00,27.0,10.0,30.50,South,184,0.0,-999.0,48,-99.99,,,0.00,weatherlink.com 1.10,2013-01-28 00:42:00,
2013-01-27 19:57:00,26.9,11.0,30.51,South,184,0.0,-999.0,52,-99.99,,,0.00,weatherlink.com 1.10,2013-01-28 00:57:00,
2013-01-27 20:12:00,26.4,11.0,30.51,South,184,0.0,-999.0,52,-99.99,,,0.00,weatherlink.com 1.10,2013-01-28 01:12:00,
2013-01-27 20:27:00,25.8,12.0,30.51,South,184,0.0,-999.0,56,-99.99,,,0.00,weatherlink.com 1.10,2013-01-28 01:27:00,
2013-01-27 20:43:00,25.3,12.0,30.50,South,184,0.0,-999.0,57,-99.99,,,0.00,weatherlink.com 1.10,2013-01-28 01:43:00,
2013-01-27 20:58:00,24.8,13.0,30.50,South,184,0.0,-999.0,60,-99.99,,,0.00,weatherlink.com 1.10,2013-01-28 01:58:00,
2013-01-27 21:13:00,24.0,13.0,30.50,South,184,0.0,-999.0,62,-99.99,,,0.00,weatherlink.com 1.10,2013-01-28 02:13:00,
2013-01-27 21:28:00,23.5,11.0,30.52,South,184,0.0,-999.0,59,-99.99,,,0.00,weatherlink.com 1.10,2013-01-28 02:28:00,